Torna al catalogo

STARLINK-11448

AttivoComunicazioniVLEO
NORAD 63005·PAYLOAD·🇺🇸 United States

Lanciato Feb 15, 2025 da Cape Canaveral Space Force Station

Loading…

Prossimi Passaggi (prossime 24 ore)

TLE

AggiornatoSource: CelesTrak SupGP

Epoca: Sep 15, 2026, 02:11 UTC

1 63005C 25032A   26258.09145833  .00081573  00000+0  63341-3 0  2583
2 63005  43.0003 133.3269 0001681 274.2592 166.3470 15.70804003    16

Traccia STARLINK-11448 in tempo reale con AllMySat

Download on the App Store